Bookmark and Share
Track history (hours):
 

MSC Bremen

Last reported at 2014-Apr-22 15:20 UTC. Time now 2014-Apr-23 15:40 UTC.
Position N 38°46' W 076°26'.

Length 294 m; ; draft 13.7 m.

Type: Ship (hazmat cat B). MMSI: 636091270.

NotesDate/timePositionNaut miles runAvg speedWind from/ knotsBaromVisibWave heightAir tempDewpointWater temp
2014-Apr-22 15:20N 38°46' W 076°26'1417.8
2014-Apr-22 14:34N 38°60' W 076°23'1312.6
2014-Apr-22 13:33N 39°12' W 076°29'5 4.6
2014-Apr-22 12:34N 39°15' W 076°33'0 0.0
2014-Apr-22 11:30N 39°15' W 076°33'0 0.0
2014-Apr-22 10:33N 39°15' W 076°33'0 0.0
2014-Apr-22 09:33N 39°15' W 076°33'0 0.0
2014-Apr-22 08:33N 39°15' W 076°33'0 0.0
2014-Apr-22 07:33N 39°15' W 076°33'0 0.0
2014-Apr-22 06:31N 39°15' W 076°33'0 0.0
2014-Apr-22 05:33N 39°15' W 076°33'0 0.0
2014-Apr-22 04:33N 39°15' W 076°33'0 0.0
2014-Apr-22 03:33N 39°15' W 076°33'0 0.0
2014-Apr-22 02:33N 39°15' W 076°33'0 0.0
2014-Apr-22 01:33N 39°15' W 076°33'0 0.0
2014-Apr-22 00:33N 39°15' W 076°33'0 0.0
2014-Apr-21 23:33N 39°15' W 076°33'0 0.0
2014-Apr-21 22:33N 39°15' W 076°33'0 0.0
2014-Apr-21 21:33N 39°15' W 076°33'0 0.0
2014-Apr-21 20:33N 39°15' W 076°33'0 0.0
2014-Apr-21 19:33N 39°15' W 076°33'0 0.0
2014-Apr-21 18:34N 39°15' W 076°33'0 0.0
2014-Apr-21 17:33N 39°15' W 076°33'0 0.0
2014-Apr-21 16:33N 39°15' W 076°33'0 0.0
2014-Apr-21 15:33N 39°15' W 076°33'0 0.0
2014-Apr-21 14:33N 39°15' W 076°33'0 0.0
2014-Apr-21 13:33N 39°15' W 076°33'0 0.0
2014-Apr-21 12:33N 39°15' W 076°33'0 0.0
2014-Apr-21 11:33N 39°15' W 076°33'0 0.0
2014-Apr-21 10:33N 39°15' W 076°33'0 0.0
2014-Apr-21 09:33N 39°15' W 076°33'0 0.0
2014-Apr-21 08:33N 39°15' W 076°33'0 0.0
2014-Apr-21 07:33N 39°15' W 076°33'0 0.0
2014-Apr-21 06:33N 39°15' W 076°33'0 0.0
2014-Apr-21 05:34N 39°15' W 076°33'0 0.0
2014-Apr-21 04:33N 39°15' W 076°33'0 0.0
2014-Apr-21 03:30N 39°15' W 076°33'0 0.0
2014-Apr-21 02:33N 39°15' W 076°33'0 0.0
2014-Apr-21 01:33N 39°15' W 076°33'0 0.0
2014-Apr-21 00:33N 39°15' W 076°33'0 0.0
2014-Apr-20 23:33N 39°15' W 076°33'0 0.0
2014-Apr-20 22:33N 39°15' W 076°33'0 0.0
2014-Apr-20 21:33N 39°15' W 076°33'0 0.0
2014-Apr-20 20:33N 39°15' W 076°33'0 0.0
2014-Apr-20 19:33N 39°15' W 076°33'0 0.0
2014-Apr-20 18:33N 39°15' W 076°33'0 0.0
2014-Apr-20 17:34N 39°15' W 076°33'0 0.0
2014-Apr-20 16:33N 39°15' W 076°33'0 0.0
2014-Apr-20 15:33N 39°15' W 076°33'0 0.0
2014-Apr-20 14:33N 39°15' W 076°33'0 0.0
2014-Apr-20 13:33N 39°15' W 076°33'0 0.0
2014-Apr-20 12:33N 39°15' W 076°33'0 0.0
2014-Apr-20 11:33N 39°15' W 076°33'0 0.0
2014-Apr-20 10:33N 39°15' W 076°33'0 0.0
2014-Apr-20 09:33N 39°15' W 076°33'0 0.0
2014-Apr-20 08:33N 39°15' W 076°33'0 0.3
2014-Apr-20 07:33N 39°15' W 076°33'7 6.9
2014-Apr-20 06:33N 39°10' W 076°26'1414.3
2014-Apr-20 05:33N 38°56' W 076°23'2319.0
2014-Apr-20 04:22N 38°34' W 076°26'9615.6
2014-Apr-19 22:12N 36°58' W 076°07'1113.9
2014-Apr-19 21:25N 36°58' W 076°20'3 0.2
2014-Apr-19 06:12N 36°60' W 076°18'3010.5
2014-Apr-19 03:19N 36°52' W 075°41'2111.4
2014-Apr-19 01:27N 37°09' W 075°26'8319.7
2014-Apr-18 21:13N 38°15' W 074°21'7619.7
2014-Apr-18 17:22N 39°27' W 073°55'1919.6
2014-Apr-18 16:26N 39°46' W 073°52'1719.5
2014-Apr-18 15:34N 40°03' W 073°50'1413.7
2014-Apr-18 14:33N 40°16' W 073°50'10 9.8
2014-Apr-18 13:33N 40°26' W 073°48'1111.0
2014-Apr-18 12:33N 40°32' W 074°01'9 8.9
2014-Apr-18 11:33N 40°39' W 074°08'3 2.6
2014-Apr-18 10:34N 40°41' W 074°09'0 0.0
2014-Apr-18 09:32N 40°41' W 074°09'0 0.0
2014-Apr-18 08:31N 40°41' W 074°09'0 0.0
2014-Apr-18 07:28N 40°41' W 074°09'0 0.0
2014-Apr-18 06:31N 40°41' W 074°09'0 0.0
2014-Apr-18 05:28N 40°41' W 074°09'0 0.0
2014-Apr-18 04:31N 40°41' W 074°09'0 0.0
2014-Apr-18 03:31N 40°41' W 074°09'0 0.0
2014-Apr-18 02:16N 40°41' W 074°09'0 0.0
2014-Apr-18 01:25N 40°41' W 074°09'0 0.0
2014-Apr-18 00:31N 40°41' W 074°09'0 0.0
2014-Apr-17 23:31N 40°41' W 074°09'0 0.0
2014-Apr-17 22:31N 40°41' W 074°09'0 0.0
2014-Apr-17 21:31N 40°41' W 074°09'0 0.0
2014-Apr-17 20:31N 40°41' W 074°09'0 0.0
2014-Apr-17 19:31N 40°41' W 074°09'0 0.0
2014-Apr-17 18:31N 40°41' W 074°09'0 0.0
2014-Apr-17 17:31N 40°41' W 074°09'0 0.0
2014-Apr-17 16:31N 40°41' W 074°09'0 0.0
2014-Apr-17 15:31N 40°41' W 074°09'0 0.0
2014-Apr-17 14:31N 40°41' W 074°09'0 0.0
2014-Apr-17 13:31N 40°41' W 074°09'0 0.0
2014-Apr-17 12:31N 40°41' W 074°09'0 0.0
2014-Apr-17 11:31N 40°41' W 074°09'0 0.0
2014-Apr-17 10:31N 40°41' W 074°09'2 2.6
2014-Apr-17 09:33N 40°39' W 074°09'5 5.1
2014-Apr-17 08:34N 40°37' W 074°03'1110.6
2014-Apr-17 07:33N 40°29' W 073°53'8 8.0
2014-Apr-17 06:32N 40°27' W 073°43'2411.8
2014-Apr-17 04:30N 40°29' W 073°11'1616.5
2014-Apr-17 03:33N 40°31' W 072°51'6 6.1
2014-Apr-17 02:33N 40°31' W 072°43'2 1.7
2014-Apr-17 01:33N 40°29' W 072°42'1 1.0
2014-Apr-17 00:33N 40°30' W 072°41'2 1.9
2014-Apr-16 23:33N 40°30' W 072°39'1717.1
2014-Apr-16 22:33N 40°31' W 072°17'2019.7
2014-Apr-16 21:33N 40°32' W 071°51'2019.6
2014-Apr-16 20:33N 40°33' W 071°25'2019.6
2014-Apr-16 19:33N 40°33' W 070°59'2219.4
2014-Apr-16 18:24N 40°33' W 070°29'1719.4
2014-Apr-16 17:33N 40°34' W 070°08'1515.7
2014-Apr-16 16:34N 40°34' W 069°47'4210.4
2014-Apr-16 12:30N 41°09' W 069°16'94 9.2
2014-Apr-16 02:16N 42°20' W 070°38'7 9.5
2014-Apr-16 01:33N 42°22' W 070°47'9 9.2
2014-Apr-16 00:33N 42°20' W 070°59'1 1.5
2014-Apr-15 23:33N 42°21' W 071°01'0 0.0
2014-Apr-15 22:33N 42°21' W 071°01'0 0.0
2014-Apr-15 21:33N 42°21' W 071°01'0 0.0
2014-Apr-15 20:33N 42°21' W 071°01'0 0.0
2014-Apr-15 19:33N 42°21' W 071°01'0 0.0
2014-Apr-15 18:33N 42°21' W 071°01'0 0.0
2014-Apr-15 17:33N 42°21' W 071°01'0 0.0
2014-Apr-15 16:33N 42°21' W 071°01'0 0.0
2014-Apr-15 15:33N 42°21' W 071°01'0 0.0
2014-Apr-15 14:30N 42°21' W 071°01'0 0.0
2014-Apr-15 12:33N 42°21' W 071°01'0 0.0
2014-Apr-15 11:33N 42°21' W 071°01'0 0.0
2014-Apr-15 10:33N 42°21' W 071°01'0 0.0
2014-Apr-15 09:33N 42°21' W 071°01'0 0.0
2014-Apr-15 08:30N 42°21' W 071°01'0 0.0
2014-Apr-15 07:33N 42°21' W 071°01'0 0.0
2014-Apr-15 06:33N 42°21' W 071°01'0 0.0
2014-Apr-15 05:33N 42°21' W 071°01'0 0.0
2014-Apr-15 03:33N 42°21' W 071°01'0 0.0
2014-Apr-15 02:33N 42°21' W 071°01'0 0.0
2014-Apr-15 01:33N 42°21' W 071°01'1 0.6
2014-Apr-15 00:34N 42°20' W 071°00'8 7.7
2014-Apr-14 23:34N 42°24' W 070°51'2 2.3
2014-Apr-14 22:32N 42°25' W 070°48'0 0.0
2014-Apr-14 21:32N 42°25' W 070°48'0 0.0
2014-Apr-14 20:32N 42°25' W 070°48'0 0.0
2014-Apr-14 19:32N 42°25' W 070°48'0 0.0
2014-Apr-14 18:32N 42°25' W 070°48'0 0.0
2014-Apr-14 16:32N 42°25' W 070°48'0 0.1
2014-Apr-14 15:32N 42°25' W 070°48'0 0.0
2014-Apr-14 14:34N 42°25' W 070°48'0 0.0
2014-Apr-14 13:34N 42°25' W 070°48'0 0.0
2014-Apr-14 11:33N 42°25' W 070°48'0 0.0
2014-Apr-14 10:33N 42°25' W 070°48'0 0.0
2014-Apr-14 09:34N 42°25' W 070°48'0 0.1
2014-Apr-14 08:33N 42°25' W 070°48'4 3.7
2014-Apr-14 07:33N 42°23' W 070°44'9 8.8
2014-Apr-14 06:33N 42°22' W 070°33'1010.0
2014-Apr-14 05:33N 42°21' W 070°19'  

Dump ship's entire track history

sailing weather and tide predictions

MSC Bremen — A8LK7 — position and weather